Regional Weather Roundup
Issued by NWS Green Bay, WI

Home | Current Version | Previous Version | Graphics & Text | Print | Product List | Glossary Off
Versions: 1 2 3 4 5 6 7 8 9 10 11 12 13 14 15 16 17 18 19 20 21 22 23 24 25 26 27 28 29 30 31 32 33 34 35 36 37 38 39 40 41 42 43 44 45 46 47 48 49 50

000
ASUS43 KGRB 301110
RWRGRB

NORTH-CENTRAL AND NORTHEAST WISCONSIN REGIONAL WEATHER ROUNDUP
NATIONAL WEATHER SERVICE GREEN BAY WI
600 AM CDT TUE SEP 30 2014

WIZ005-009-010>012-018-019-301200-
NORTH CENTRAL WISCONSIN

CITY           SKY/WX    TMP DP  RH WIND       PRES   REMARKS
IRONWOOD       NOT AVBL
MANITOWISH WTR CLOUDY    37  37 100 NE5       30.14R
ARBOR VITAE    CLOUDY    39  37  93 N5        30.13S
EAGLE RIVER    CLOUDY    37  37  99 NE5       30.12R
LAND O LAKES   CLOUDY    38  38  99 N8        30.13S FOG
RHINELANDER    CLOUDY    38  36  92 CALM      30.13R
PHILLIPS       CLOUDY    37  36  94 N7        30.12F
ANTIGO         CLOUDY    38  37  96 CALM      30.11R
TOMAHAWK       CLOUDY    38  35  90 CALM      30.13S
MERRILL        CLOUDY    39  38  95 N3        30.12S
$$

WIZ013-073-301200-
NORTHEAST WISCONSIN

CITY           SKY/WX    TMP DP  RH WIND       PRES   REMARKS
IRON MOUNTAIN  CLOUDY    40  36  86 NE8       30.10F
MARINETTE      NOT AVBL
OCONTO         CLOUDY    42  41  94 NE5       30.11S
$$

WIZ017-030-035>037-045-301200-
CENTRAL WISCONSIN

CITY           SKY/WX    TMP DP  RH WIND       PRES   REMARKS
MEDFORD        CLOUDY    37  35  92 E5        30.11F
WAUSAU         CLOUDY    40  36  86 VRB3      30.11F
MOSINEE        CLOUDY    39  39 100 NE9       30.12F
MARSHFIELD     CLOUDY    40  36  86 E7        30.11F
WISC RAPIDS    CLOUDY    41  36  82 NE6       30.13S
STEVENS POINT  CLOUDY    38  36  91 NE6       30.13S
WAUPACA        CLOUDY    44  40  85 N5        30.13S
SHAWANO        CLOUDY    45  39  79 N6        30.13S
CLINTONVILLE   CLOUDY    43  36  75 N6        30.12S
$$

WIZ038-039-048-051-301200-
FOX VALLEY

CITY           SKY/WX    TMP DP  RH WIND       PRES   REMARKS
NWS GREEN BAY  CLOUDY    43  39  86 N9        30.12R
APPLETON       CLOUDY    43  39  87 N9        30.12R
OSHKOSH        CLOUDY    43  39  86 N9        30.11S
FOND DU LAC    CLOUDY    45  39  79 NE13      30.10S
$$

WIZ022-050-052-301200-
EAST CENTRAL WISCONSIN

CITY           SKY/WX    TMP DP  RH WIND       PRES   REMARKS
STURGEON BAY   NOT AVBL
MANITOWOC      NOT AVBL
SHEBOYGAN      CLOUDY    44  39  82 N8        30.09S
$$

LMZ563-521-522-541>543-301200-
LAKESHORE

STATION/POSITION TIME  TEMP    WIND        PRES    VSBY  WAVE
                       AIR SEA DIR/SP/G                  HT/PER
                 (UTC) (F)     (DEG/KT/KT) (MB)    (MI)  (FT/S)
SHEBOYGAN LKSHOR 1100   45 54  330/ 13/ 15 1019.3S
KEWAUNEE LKSHORE 1100   45     340/  8/ 12 1018.2R
NORTHPORT PIER   1100   46     350/ 16/ 20 1019.0S
N MID LAKE BUOY  1100   47 58  360/ 16/ 19 1018.2R         4/ 5
S GREEN BAY BUOY 1100   45     VRB 12/ 16  1020.4R
CHAMBERS ISLAND  1100   45     330/ 16/ 20 1019.6S
MENOMINEE LKSHOR 1100   44     350/ 18/ 20 1020.1S
$$



USA.gov is the U.S. government's official web portal to all federal, state and local government web resources and services.